CZ-6A DEB, 56638

Orbit data source: Space-Track

CZ-6A DEB, 56638 is space debris in SSO originally from a launch on Fri, 11 Nov 2022 UTC launched from the Taiyaun Space Center, China (TSC). Debris objects in space refer to the collection of defunct objects orbiting the Earth. Examples of debris include non-operational satellites, rocket bodies, and fragments generated from explosions, collisions, or faulty payload assembly.

Loading next visibility...
Identifier
56638, 2022-151AFN
Orbit
SSO
Country
Flag of CNCN / PRC
Related business
Manufacturer
SAST
Mission
Spacecraft
Bus & Motor
Unknown
Mass
Unknown
Launch date (UTC)
2022-11-11 (4 years ago)
Launch vehicle
Unknown
Launch site
Taiyaun Space Center, China (TSC)
Object type
Payload
Rocket body
Debris
Shape & HBR
Unknown shape, 0.1 m
Radar Cross Section
Small (<0.1 m²)

Expand to show TLE details & history
Last TLE update: 2 days ago

TLE from 2 days ago
0 CZ-6A DEB
1 56638U 22151AFN 26234.76617451  .00000394  00000-0  20963-3 0  9992
2 56638  98.8231 254.6774 0050015 169.2182 191.0077 14.18440591172233
Epoch: 2026-08-22T18:23Z
TLE epoch observation values (Epoch: 2026-08-22T18:23:17.477Z)
Latitude
-0.00009°
Longitude
7.78272°
Altitude
868.945 km
Speed
7.4 km/s
True Right ascension
16h 58m 42s
True Declination
0° 00' 00"
Sunlit
Object was in daylight at epoch
Visualization orbit readout
Latitude
Unknown
Longitude
Unknown
Altitude
Unknown
Speed
Unknown
Apparent Right ascension
Unknown
Apparent Declination
Unknown
Sunlit
N/A
Visualization observer readout
Local Sidereal Time
08:07:22
Azimuth
Unknown
Elevation
Unknown
Doppler factor
Unknown
Orbital elements
Apogee altitude
863.838 km
Perigee altitude
791.757 km
Semi-major axis
7,205.934 km
Eccentricity
0.005
Inclination
98.8231°
RAAN
254.6774°
Arg. of periapsis
169.2182°
True anomaly
190.89893°
Mean anomaly
191.0077°
Eccentric anomaly
190.95325°
Mean motion
3.5482 °/min
Orbital period
101.46 mins
BSTAR
0.00020963
Loading maneuver chart data...
Computing Atmospheric mass density...

Documentation

Showing up to 5 results
|